Temp
23 22 21 21 22 22 23 23 23 23 23 23 23 21 21 21 21 22 23 23 24 22 20 20 19 19 20 20 20 20 19 19 19 19 18 18 18 18 18 18 18 19 18 19 19 19 19 20 21 21 22 22 21 20 20 20 20 19 19 19 19 18 18 17 17 18 18 17 17 17 17 17 18 19 19 19 20 19 20 20 20 20 20 20 20 21
22 22 21 22 22 23 24 24 24 24 23 23 22 21 21 21 21 22 22 23 23 21 19 19 19 19 19 20 20 20 19 19 19 18 18 18 18 18 18 18 18 18 18 18 18 18 19 19 19 20 20 21 21 20 20 20 20 20 19 19 18 18 18 18 17 18 18 17 16 15 16 17 17 18 18 19 20 20 20 20 20 20 20 21 21 21
22 22 22 23 23 23 24 24 24 23 22 22 22 21 21 21 21 22 22 22 22 21 19 19 19 18 19 19 20 20 19 19 19 18 18 18 18 18 18 18 17 17 17 17 17 17 18 18 18 18 18 19 20 20 20 20 20 20 20 19 19 18 18 18 18 17 17 17 16 16 17 18 17 17 18 19 20 20 20 19 19 19 20 21 21 21
21 22 23 24 24 24 23 23 23 22 22 22 22 21 20 21 21 21 22 21 21 21 20 19 19 18 18 19 19 19 19 19 19 18 18 18 17 17 17 17 17 17 17 17 17 16 16 17 17 17 17 17 18 19 19 19 20 20 20 20 19 19 18 18 18 17 17 17 16 17 17 17 16 16 17 17 18 19 19 19 19 19 20 21 21 21
21 23 24 24 24 23 23 22 22 22 21 21 21 21 21 21 21 21 22 21 20 20 19 19 20 18 18 18 19 19 19 18 18 18 17 17 17 17 17 17 17 16 16 16 16 16 16 16 16 16 17 17 17 17 17 18 18 19 19 20 20 19 19 18 18 17 17 17 16 16 16 15 15 15 16 16 17 18 18 19 19 19 19 20 21 21
22 23 23 23 23 23 23 22 22 22 21 21 21 22 22 22 22 22 22 21 20 20 19 19 19 18 18 18 18 19 18 18 18 17 17 17 17 17 16 16 16 16 16 16 15 15 15 15 16 16 16 16 16 17 17 17 18 18 19 19 20 20 19 19 18 17 17 17 17 16 15 15 15 15 15 16 16 17 17 18 18 18 19 19 20 20
22 22 23 22 22 22 22 22 22 22 21 20 21 22 22 22 22 21 21 20 20 19 18 19 19 17 17 18 18 18 18 17 17 17 16 16 16 16 16 16 16 16 16 15 15 15 15 15 15 16 16 16 16 16 17 18 18 18 18 19 19 19 19 19 18 18 17 17 16 16 15 15 16 17 17 16 16 16 16 17 18 18 18 18 19 19
22 22 22 22 22 22 21 21 22 22 21 21 22 23 22 22 21 20 20 19 18 18 18 18 19 17 16 18 18 18 17 16 16 16 16 16 16 16 16 16 16 16 16 15 15 15 14 15 15 15 16 16 16 16 17 17 17 17 18 18 18 19 19 19 18 18 18 17 16 16 16 15 16 17 17 18 18 18 18 17 18 19 18 18 18 19
22 22 22 22 21 21 21 21 22 22 21 22 23 23 22 21 21 20 20 19 18 18 18 17 18 17 16 18 18 18 17 16 16 16 16 16 16 16 16 16 16 16 15 15 15 15 14 15 15 15 15 15 15 15 16 16 16 17 17 18 18 18 19 19 18 18 18 17 16 16 17 16 16 16 16 18 19 19 19 18 18 19 19 19 18 19
21 22 22 22 21 21 22 22 22 22 21 22 23 22 21 20 20 20 19 19 18 18 18 17 18 17 15 17 18 17 17 16 15 16 16 16 16 16 16 16 17 16 16 15 15 14 15 15 15 15 15 15 15 15 15 16 16 16 17 17 17 18 18 19 18 18 18 17 16 16 16 17 17 16 15 17 18 18 18 18 18 19 20 20 19 19
20 22 23 22 22 22 23 23 22 22 21 22 22 21 20 19 19 19 18 18 18 18 17 17 17 17 16 17 18 17 17 16 16 16 16 16 16 16 16 17 17 16 16 16 15 14 15 15 15 14 14 14 15 15 15 15 16 16 16 16 17 17 18 18 18 18 18 17 16 16 16 16 17 16 16 16 17 17 17 18 18 19 20 20 20 20
20 22 22 22 22 22 23 22 22 21 21 21 21 20 20 19 19 19 18 18 18 17 17 17 17 17 16 16 17 17 17 17 17 17 16 17 16 16 16 16 16 16 15 15 15 14 14 14 14 14 13 13 14 14 14 15 15 15 15 15 16 17 17 18 18 18 18 18 17 17 16 16 16 16 16 16 16 17 17 17 18 19 19 19 19 19
20 21 20 21 22 22 22 21 21 21 21 21 20 19 19 18 18 18 18 17 17 17 17 17 17 17 16 17 17 17 17 17 17 17 17 17 16 16 16 16 16 15 15 15 15 14 13 13 13 13 13 13 13 13 13 14 14 14 15 15 15 16 17 17 18 18 18 18 18 17 16 16 16 16 16 16 16 17 18 17 18 18 19 19 19 19
20 20 20 21 21 21 21 20 20 20 20 20 20 20 19 18 17 17 17 17 17 17 17 17 17 16 16 17 17 17 17 17 17 17 17 17 17 17 16 16 15 15 15 15 15 14 12 12 12 12 12 12 12 12 13 13 13 13 14 14 15 15 16 17 18 18 18 18 18 18 17 16 16 16 16 16 16 17 18 17 17 17 18 19 19 19
18 19 19 20 20 20 20 20 21 20 20 21 20 19 19 19 18 17 17 17 16 16 17 17 17 16 16 17 17 17 17 17 17 18 17 17 17 16 16 15 15 15 15 15 15 14 12 12 12 12 12 12 12 12 12 12 13 13 13 13 14 14 15 16 17 17 17 18 18 18 18 18 17 16 16 16 16 16 17 17 17 17 18 19 19 19
17 17 19 19 20 20 20 21 22 21 20 20 19 19 19 19 19 18 17 17 17 16 16 17 16 16 17 18 17 17 17 17 17 17 17 17 16 16 16 15 15 15 15 15 15 13 12 12 12 12 12 12 12 11 11 12 12 12 12 13 13 14 14 15 16 17 17 18 19 19 19 18 18 16 16 16 16 16 16 17 17 17 18 18 19 19
17 17 19 19 20 21 20 20 21 21 20 20 19 20 20 20 20 18 17 16 17 16 16 16 16 16 17 17 17 17 17 17 16 17 17 17 16 16 15 15 15 15 15 15 14 13 12 12 12 11 11 11 11 11 11 11 12 12 12 12 13 13 14 14 15 16 17 18 19 19 19 19 18 18 17 16 16 16 16 16 17 17 17 18 18 18
17 17 19 19 20 21 21 21 21 21 20 20 19 20 20 19 19 19 17 16 16 16 16 16 16 16 16 16 17 17 17 16 16 17 16 16 16 15 15 15 15 15 15 15 13 12 12 12 11 11 11 11 11 11 11 11 11 11 12 12 12 13 13 13 15 16 17 18 18 18 18 18 18 18 17 17 17 16 16 16 16 16 17 17 17 18
17 17 18 19 20 20 21 21 20 20 20 19 19 20 20 19 19 18 18 17 16 15 15 15 15 15 16 16 17 17 17 17 17 16 16 15 15 15 15 15 15 15 15 14 13 12 12 11 11 11 11 11 12 11 11 11 11 11 12 12 12 12 12 13 14 15 16 17 18 18 18 18 18 18 17 17 17 16 16 15 15 16 16 16 16 17
17 17 18 19 19 19 20 19 18 18 19 20 20 20 19 19 18 18 18 17 17 16 14 15 15 15 16 17 17 17 17 17 17 16 16 15 15 15 15 15 15 15 14 13 13 12 11 11 11 11 11 12 12 12 11 11 11 11 12 12 12 12 12 13 14 14 15 16 17 17 18 18 18 18 18 18 17 16 16 16 15 16 16 16 16 16
17 17 17 18 19 19 18 17 17 17 18 19 19 18 18 19 18 18 17 17 17 17 15 14 14 15 17 18 17 17 17 17 17 17 16 15 15 15 15 15 15 15 14 13 13 12 11 11 11 11 12 12 12 12 12 12 12 12 12 12 12 12 12 13 14 14 14 15 16 17 17 17 18 18 18 18 18 17 17 16 16 16 16 16 16 16
17 17 17 17 18 18 17 17 17 17 18 18 18 18 18 18 18 17 17 16 17 17 16 15 14 15 17 18 17 18 18 17 17 17 16 15 15 15 15 15 15 14 14 13 12 11 11 11 11 11 12 12 12 12 12 12 12 12 12 12 12 12 12 12 13 14 14 15 16 16 17 17 17 17 17 18 18 17 17 17 17 17 16 16 16 16
17 16 16 17 17 17 17 17 17 17 18 18 18 18 18 17 17 17 16 16 16 16 16 15 15 16 17 18 17 18 18 17 16 17 16 15 15 15 15 15 14 14 14 13 12 11 11 12 11 12 12 12 12 12 12 12 12 12 12 12 11 11 12 12 13 13 14 14 15 16 16 16 16 17 17 17 17 17 17 17 17 17 17 17 16 15
17 16 16 16 16 17 18 18 18 17 18 18 18 18 18 17 18 17 16 16 16 16 16 15 15 16 17 17 17 18 18 16 16 16 16 15 15 15 15 15 14 14 14 13 12 11 11 12 12 12 11 11 12 12 12 12 12 12 12 12 11 11 11 12 12 12 13 14 14 15 15 16 16 16 17 17 17 17 17 17 18 18 18 18 17 16
17 16 16 16 16 16 17 18 18 18 18 18 18 18 18 18 18 17 16 16 16 15 15 15 15 16 17 17 17 17 17 16 16 16 15 15 15 15 15 14 14 14 13 13 12 11 11 12 12 12 11 11 12 12 12 12 12 12 12 11 11 11 11 12 12 12 13 13 14 14 14 15 15 15 16 16 16 17 17 17 17 18 18 18 18 17
17 16 16 16 15 15 15 16 16 17 17 17 17 18 18 18 18 17 16 16 16 15 15 15 15 16 16 17 17 17 16 16 16 15 15 15 15 15 15 14 14 14 14 14 13 12 11 11 11 12 12 11 12 12 12 12 11 11 11 11 11 11 11 11 11 12 12 13 13 13 13 14 14 14 15 15 16 16 16 17 17 18 18 18 18 18
16 16 16 16 16 15 16 16 17 16 16 17 17 18 18 17 17 17 16 15 15 15 15 15 15 15 16 17 17 16 17 16 15 15 14 15 15 15 15 14 14 14 14 14 14 13 12 11 11 11 12 12 12 12 12 12 11 11 11 11 11 11 11 11 11 11 12 12 12 12 12 13 13 14 14 15 15 16 16 16 17 17 18 18 17 17
16 16 16 16 16 16 16 17 17 17 16 17 17 17 17 17 17 17 16 16 15 15 15 15 15 15 16 17 16 16 16 16 16 15 15 15 15 15 14 14 14 14 14 14 14 13 13 12 10 11 12 12 12 12 12 11 11 11 11 11 10 10 10 10 11 11 11 11 11 11 12 12 13 13 14 14 15 15 16 16 16 17 17 18 18 17
16 16 16 16 16 17 16 17 17 17 17 17 17 17 17 17 17 17 17 16 16 15 16 16 15 15 16 17 16 16 17 17 17 16 15 15 15 15 14 14 14 14 14 14 13 13 13 12 10 10 11 11 11 12 12 11 11 11 11 11 10 10 10 10 10 10 10 10 10 11 11 11 12 13 14 14 14 15 15 16 16 16 16 17 17 17
16 16 16 16 16 17 17 17 17 16 16 17 17 17 17 17 17 17 17 16 16 16 16 16 16 16 17 16 16 17 17 16 16 15 15 14 14 14 14 14 14 14 14 14 13 12 12 11 10 11 11 11 11 11 11 11 11 10 10 10 10 10 10 10 10 10 10 10 10 10 10 11 12 12 13 13 14 14 15 15 15 15 16 16 16 16
16 16 16 16 16 16 17 17 16 16 16 16 17 17 17 17 17 16 16 16 16 16 16 16 16 16 16 16 16 17 16 15 15 15 14 14 14 14 14 14 14 14 14 14 13 12 12 10 10 11 11 10 11 11 10 10 10 10 10 10 10 10 10 10 10 9 9 9 9 10 10 10 11 11 12 13 13 13 14 14 15 15 15 15 16 16
16 16 16 16 15 15 17 16 15 16 16 16 17 17 16 16 16 16 16 16 16 16 16 15 15 16 16 16 16 15 15 15 15 14 14 14 14 14 14 14 14 13 13 13 12 12 12 10 9 10 10 10 11 11 10 10 10 10 10 10 10 10 10 9 9 9 9 9 9 9 9 9 10 11 11 12 12 13 13 14 14 15 15 15 15 15
16 16 16 15 15 15 16 15 15 16 16 16 17 17 17 16 16 16 16 16 16 16 16 15 16 17 16 16 16 15 15 15 14 14 14 14 14 14 14 14 13 13 13 13 12 12 12 11 10 11 11 10 10 10 10 10 10 10 10 9 9 9 9 9 9 9 9 9 9 9 9 9 9 10 10 11 11 12 12 13 14 14 14 14 15 15
16 16 16 15 15 15 16 15 15 15 15 16 17 17 17 17 17 16 16 16 16 16 16 16 17 16 16 16 16 15 15 15 14 14 14 14 14 14 14 13 13 13 13 12 12 11 11 10 11 11 11 10 10 10 10 10 10 9 9 9 9 9 9 9 9 8 8 8 8 8 8 8 9 9 10 10 11 11 12 12 13 13 13 14 14 14
16 16 16 15 15 15 15 15 15 15 15 17 17 17 16 17 17 17 17 17 16 16 16 17 17 16 16 16 16 15 15 14 14 14 14 14 14 14 14 13 13 13 12 12 12 11 10 11 11 11 11 10 10 10 10 9 9 9 9 9 9 9 9 9 8 8 8 8 8 8 8 8 8 8 9 9 10 10 11 12 12 12 13 13 13 13
17 16 16 15 15 15 15 14 14 15 16 16 17 17 16 16 16 16 16 16 16 16 16 17 17 16 16 16 15 14 14 14 14 14 14 14 14 14 14 13 13 12 12 12 11 11 11 11 11 10 10 10 10 10 10 9 9 9 9 9 9 9 9 8 8 8 8 8 8 8 8 8 7 8 8 8 9 10 10 11 11 12 12 12 12 12
17 17 16 15 15 14 14 14 14 15 15 16 16 17 17 17 17 17 16 17 16 16 16 17 17 16 15 15 14 13 13 13 13 14 14 14 14 14 13 13 12 12 12 12 11 11 11 11 11 10 10 10 10 10 9 9 9 9 9 9 8 8 8 8 8 8 8 8 8 8 7 7 7 7 7 7 8 9 9 10 11 11 12 12 11 11
17 17 16 15 15 14 14 14 14 14 14 16 17 17 17 17 17 17 16 16 17 16 16 16 17 16 16 15 14 13 14 14 14 13 14 14 14 13 13 12 12 12 12 12 11 11 11 11 10 10 10 10 9 9 9 9 9 9 9 8 8 8 8 8 8 8 8 8 8 7 7 7 6 6 6 7 7 8 9 9 10 10 11 11 10 10
16 16 15 15 15 14 14 14 13 13 14 16 18 17 16 16 17 17 15 15 17 16 15 16 17 16 16 16 15 15 15 15 14 14 14 14 13 12 12 12 12 12 12 11 11 11 11 11 10 10 10 9 9 9 9 9 9 8 8 8 8 8 8 8 8 8 8 8 8 7 7 6 6 6 6 6 7 7 8 9 9 9 10 10 9 8
16 15 14 15 15 14 14 14 13 14 15 16 18 17 15 16 17 16 14 15 16 15 15 16 17 16 16 16 16 16 16 15 14 14 14 13 12 12 12 12 12 12 11 11 11 11 11 10 10 10 9 9 9 9 9 9 8 8 8 8 8 8 7 8 8 8 8 8 7 7 7 6 6 6 6 6 6 6 7 7 8 8 8 8 8 7
15 15 14 14 14 14 13 13 13 14 16 17 17 16 16 16 16 15 14 16 17 15 15 17 17 16 16 16 15 15 15 15 15 14 13 12 12 12 12 12 12 12 11 11 11 11 10 10 10 9 9 9 9 9 8 8 8 8 7 7 7 7 7 8 8 8 8 8 7 7 6 6 6 5 5 5 5 6 6 6 7 7 7 7 6 6
15 15 14 14 14 13 13 13 13 14 16 17 16 15 16 16 15 15 16 16 16 16 16 17 17 16 16 16 16 15 15 14 14 14 13 13 13 12 11 12 12 11 11 11 11 11 10 10 9 9 9 9 9 8 8 8 8 8 7 7 7 7 8 8 8 8 8 7 7 6 6 6 5 5 5 5 5 5 5 5 6 6 6 6 5 5
16 15 14 14 14 14 13 13 13 14 16 16 15 15 16 16 16 16 16 15 15 16 17 16 16 15 15 15 15 15 14 14 14 14 14 14 13 11 11 12 12 11 11 11 11 10 10 10 9 9 9 8 8 8 8 8 8 7 7 7 7 7 8 8 8 8 7 7 7 6 5 5 5 4 4 4 4 4 4 4 5 5 5 5 4 4
16 16 15 15 15 14 14 13 15 17 17 16 16 16 16 17 17 17 16 16 16 16 16 15 15 14 15 15 15 15 15 14 14 14 14 13 13 11 10 11 11 11 11 11 10 10 10 9 9 9 9 8 8 8 8 8 8 7 7 7 7 7 7 8 8 7 7 7 6 6 5 5 5 4 4 4 4 4 3 4 4 4 4 4 3 3
16 16 16 16 16 16 16 16 17 18 16 16 17 18 17 17 16 16 16 17 16 15 15 15 15 14 14 15 15 14 14 14 14 14 13 13 13 11 10 11 11 11 11 11 10 10 10 9 9 9 8 8 8 8 8 8 7 7 7 7 7 7 7 7 7 7 6 6 6 5 5 5 4 4 4 3 3 3 3 3 3 3 3 3 3 2
16 16 16 16 16 17 17 17 17 17 16 15 16 17 17 17 16 16 16 16 16 15 15 15 15 14 14 15 15 14 14 14 14 14 13 13 13 11 10 11 11 11 11 11 10 10 9 9 9 9 8 8 8 8 8 7 7 7 7 7 7 7 7 7 7 7 6 6 6 5 4 4 4 4 3 3 2 2 2 2 3 3 3 3 2 2
16 15 16 16 17 16 17 17 17 18 17 16 16 16 16 16 16 15 16 16 16 16 15 14 14 14 14 15 15 15 14 14 14 13 13 14 12 10 10 11 11 11 11 11 10 10 10 9 9 9 8 8 8 8 8 7 7 7 7 7 7 7 7 7 7 7 6 6 6 5 4 4 4 3 3 2 2 2 2 2 2 2 2 2 2 2
15 15 16 16 16 16 16 17 17 17 17 16 16 16 16 16 15 15 15 16 16 15 15 14 14 14 14 14 15 14 14 14 14 13 13 13 11 9 10 11 11 11 11 11 10 10 10 9 9 9 8 8 8 8 8 7 7 7 7 7 7 6 7 7 6 6 6 6 6 5 5 4 3 3 2 1 1 1 1 2 2 2 2 2 1 1
15 15 15 15 15 15 16 16 17 17 17 16 16 17 16 16 16 15 15 15 15 15 14 13 13 13 13 13 14 14 14 14 13 13 13 13 10 9 10 12 11 11 11 11 10 10 10 9 9 9 9 9 9 8 8 7 7 7 7 7 6 6 6 6 6 6 5 5 5 5 5 4 4 3 2 1 2 2 2 2 2 1 1 1 1 1
15 14 15 15 14 14 15 16 17 16 16 17 17 17 17 15 15 15 15 15 15 15 15 14 13 13 12 12 12 13 15 14 12 11 12 12 10 10 11 12 11 11 11 11 10 10 10 9 9 9 9 9 9 8 8 7 7 7 7 6 6 6 6 6 6 6 5 5 5 4 4 4 4 3 3 2 2 2 2 2 2 1 1 1 1 1
14 15 15 15 14 14 16 17 16 15 16 17 17 17 17 16 16 16 16 16 16 15 14 15 15 13 13 12 11 13 14 13 11 11 11 10 10 11 12 12 11 11 11 11 10 10 9 9 9 9 9 9 9 8 8 7 7 7 7 6 6 6 6 6 6 5 5 5 5 5 4 4 3 3 3 2 2 2 2 2 2 2 2 1 1 1
Height
795 804 809 809 808 805 802 801 800 800 802 804 806 811 817 817 815 810 805 800 796 810 826 825 826 827 823 822 821 818 817 819 822 824 827 828 828 827 825 825 825 824 823 821 820 820 820 819 818 817 816 815 814 814 814 812 811 810 810 808 806 806 806 806 806 806 806 806 806 806 805 803 802 802 804 805 807 810 811 813 815 816 818 821 823 827
798 808 809 804 803 799 796 795 795 797 801 803 807 812 815 816 815 810 807 803 797 812 829 823 825 831 827 825 823 819 820 823 826 828 830 830 830 829 827 827 827 826 825 823 823 823 822 822 821 820 818 817 816 815 815 814 812 810 809 809 807 806 805 805 805 805 805 804 805 807 807 805 805 804 803 804 805 807 810 812 814 815 817 819 821 824
806 809 803 797 797 794 794 795 796 801 803 806 808 811 815 815 815 811 807 807 803 813 828 823 825 835 832 827 825 822 824 826 827 828 830 830 830 831 830 829 829 828 828 827 826 826 825 824 823 822 821 819 818 817 816 815 813 811 809 808 807 805 804 804 803 804 804 803 803 805 806 804 804 803 803 803 804 806 809 811 813 814 815 817 819 821
812 807 797 793 793 794 798 800 801 804 806 808 809 813 817 815 816 817 812 811 808 813 824 823 825 835 834 830 828 826 826 827 828 828 829 830 831 833 832 831 831 831 831 830 830 829 828 827 826 825 824 822 820 818 817 815 814 812 810 809 807 805 804 803 802 803 804 803 803 804 804 803 804 804 804 805 806 806 807 809 812 814 815 816 817 819
809 801 793 792 793 797 802 804 805 809 811 812 810 813 817 814 814 817 812 811 814 817 822 822 829 837 837 836 833 829 828 829 830 830 830 831 831 832 832 832 833 833 833 833 832 832 830 829 828 827 825 823 822 819 817 816 814 812 810 808 807 805 803 802 802 803 804 803 802 802 803 804 804 805 807 808 808 806 806 808 810 813 814 815 816 817
805 797 793 796 798 799 803 806 806 809 814 816 811 808 811 811 812 812 811 814 822 828 825 824 838 847 840 836 836 831 831 833 832 831 832 832 831 831 832 833 833 833 832 833 833 833 832 830 829 828 826 824 822 820 818 816 814 812 810 808 806 804 803 802 801 802 802 801 801 801 803 805 805 807 808 810 810 808 807 807 808 811 813 814 815 816
803 797 796 801 804 804 807 808 805 805 815 820 811 803 805 808 811 814 814 820 830 835 829 824 836 850 845 836 836 833 834 835 834 833 834 832 831 831 832 832 832 832 832 832 832 832 832 831 830 828 827 825 823 821 818 815 814 812 809 807 805 803 802 801 801 801 800 800 800 801 802 804 803 803 804 807 810 810 809 809 808 809 811 813 814 815
802 800 801 803 806 809 812 813 806 804 814 817 806 801 804 807 814 817 817 825 833 833 833 828 830 847 851 839 834 835 837 839 838 837 836 833 833 833 833 833 833 833 833 833 833 832 832 832 830 828 827 825 823 821 818 816 814 812 809 807 805 803 802 801 801 800 800 800 799 799 800 800 799 798 799 801 804 806 808 809 807 807 809 811 812 814
802 804 805 805 810 813 812 810 805 804 812 810 800 801 805 807 813 816 818 828 834 832 840 839 831 847 856 841 833 836 839 844 843 840 839 836 835 835 834 833 833 833 833 833 834 833 833 832 830 829 827 826 823 821 819 816 814 811 809 807 804 803 802 800 800 800 800 799 798 798 798 797 796 796 798 799 799 800 802 804 805 805 806 808 810 812
806 804 802 803 811 812 807 803 800 804 809 802 798 803 808 812 814 816 822 830 835 837 844 844 835 848 858 844 837 840 842 846 845 841 840 837 836 835 834 833 833 833 833 834 834 834 833 832 831 830 827 825 823 821 819 816 813 811 809 807 804 803 802 800 800 800 799 799 798 797 796 795 795 795 796 797 797 798 799 801 802 802 803 805 807 809
808 800 798 802 806 805 802 801 799 802 804 798 801 809 814 819 819 822 828 830 838 844 843 842 837 844 856 848 839 840 841 842 841 841 839 836 835 835 834 833 833 834 834 834 834 834 834 833 832 830 828 825 823 820 818 815 813 811 808 807 804 803 801 800 799 799 798 798 797 795 794 794 794 793 794 794 794 796 797 798 798 799 799 801 803 806
808 803 805 803 801 801 801 802 801 801 801 802 808 814 820 827 826 828 833 834 845 848 840 839 838 841 852 849 840 839 837 835 836 838 838 836 835 835 834 834 834 834 835 834 835 834 834 834 832 831 829 826 824 821 818 815 812 810 808 807 804 802 801 799 798 798 797 796 795 794 793 793 792 792 792 793 792 793 794 795 796 796 797 798 800 802
813 810 812 805 801 803 805 808 807 803 803 806 813 819 827 837 838 840 843 843 848 847 838 838 839 843 850 844 838 838 835 834 834 834 835 835 835 835 834 835 835 835 835 835 835 835 835 834 833 832 829 826 824 822 819 816 813 810 807 806 804 802 800 799 797 797 796 795 793 792 791 791 791 791 790 790 791 791 791 792 793 794 795 796 797 799
822 816 813 810 807 804 808 815 817 815 812 812 815 821 829 839 847 852 851 850 851 847 840 837 840 849 851 841 835 836 834 833 832 831 832 833 834 834 834 835 836 835 835 834 835 835 835 834 833 831 829 826 824 821 819 816 813 810 807 806 804 802 800 798 797 796 794 793 791 790 789 789 790 789 788 788 789 789 789 790 791 792 793 794 795 797
838 831 820 817 815 809 810 813 814 816 816 814 813 818 825 832 841 848 848 847 851 852 845 841 845 852 851 840 833 832 832 831 830 830 832 832 833 834 834 835 835 835 834 834 834 835 835 834 833 831 829 826 823 821 819 817 814 811 808 805 804 802 799 798 796 794 793 791 789 788 787 787 787 787 786 786 787 787 788 788 789 790 791 792 793 794
843 839 821 815 814 810 813 809 803 810 817 816 814 818 824 824 828 839 842 842 846 852 851 848 848 846 840 834 831 831 832 832 832 833 833 833 833 834 835 835 835 834 834 834 834 835 835 834 833 832 829 826 823 821 819 817 814 811 808 805 803 801 799 797 795 793 791 789 787 786 786 785 784 784 785 784 785 785 785 786 787 788 789 790 791 793
842 837 819 814 813 808 810 808 803 810 818 818 818 821 820 815 819 833 844 843 843 850 853 850 849 844 838 836 833 832 834 834 835 834 833 833 834 835 835 835 834 834 833 833 834 835 835 834 833 831 829 826 823 821 818 816 814 811 808 805 802 800 798 796 794 792 790 787 786 784 783 783 782 782 782 782 782 782 783 784 785 786 787 789 790 791
838 837 823 817 817 808 804 806 804 806 811 819 823 819 815 816 819 827 841 847 848 853 854 851 850 849 847 846 838 835 838 837 836 834 834 835 835 835 835 834 833 833 833 834 834 835 834 833 832 830 828 826 822 820 818 816 814 811 808 805 802 800 798 796 793 791 789 787 785 783 782 781 781 781 781 781 781 781 782 782 783 784 785 786 787 788
833 838 828 817 818 812 804 807 813 809 807 814 817 812 815 826 829 830 838 846 850 857 859 854 853 852 849 845 839 837 839 837 835 836 835 836 835 834 834 833 832 833 833 834 834 834 833 832 831 829 827 824 821 819 817 814 812 809 806 804 801 800 798 795 793 790 789 787 785 784 782 780 780 781 781 780 780 781 781 781 782 783 783 784 785 786
829 839 836 821 817 816 813 819 829 825 813 810 812 812 817 824 829 832 835 839 844 853 861 860 858 853 843 837 836 836 836 834 834 835 835 835 835 834 833 832 832 832 833 834 834 833 832 832 830 828 826 823 820 818 816 813 811 808 805 803 801 799 796 794 792 789 788 787 786 784 782 781 781 780 780 779 778 778 778 779 779 779 780 780 782 783
829 837 839 828 819 821 827 830 833 832 825 820 822 825 824 822 826 831 833 836 839 845 856 862 862 852 838 832 833 834 832 832 832 832 832 834 834 833 832 831 831 833 833 834 833 832 832 831 829 827 824 821 819 817 814 812 810 807 804 802 800 798 795 793 791 789 788 787 785 784 783 782 781 780 780 779 777 777 776 776 777 776 777 778 779 780
830 835 839 836 830 830 833 829 825 827 827 825 828 830 829 827 829 836 840 839 837 840 848 855 858 849 834 829 831 829 828 829 830 829 831 834 834 833 832 831 832 833 833 833 832 831 831 829 827 825 822 820 817 815 813 811 809 807 804 802 800 797 795 793 791 789 788 787 785 784 783 782 781 780 779 778 777 776 775 775 775 775 776 777 777 778
827 834 839 839 836 833 830 825 824 825 822 822 825 826 828 829 832 839 845 842 839 842 844 846 852 846 832 827 829 826 825 828 829 828 830 834 834 831 830 830 832 832 831 832 831 829 829 827 825 823 820 818 816 814 813 811 809 807 805 802 800 797 794 793 792 790 788 787 786 784 783 781 780 779 778 777 776 776 775 774 774 774 774 774 775 777
827 835 839 839 836 831 826 822 822 822 820 823 825 823 825 829 829 833 839 840 841 844 843 846 852 845 831 827 828 825 825 828 829 827 829 833 833 830 829 830 831 831 830 830 829 828 826 824 823 821 819 817 815 814 813 811 809 808 805 802 800 798 795 793 792 791 789 787 785 784 782 781 780 779 777 776 775 775 774 773 773 772 772 772 772 773
830 838 841 843 844 841 836 833 829 826 825 828 828 824 824 826 827 830 835 839 842 845 845 847 851 844 832 828 828 827 827 828 828 828 829 831 831 829 829 829 830 830 829 829 828 826 825 823 822 821 819 817 815 814 813 812 810 808 806 803 801 798 796 794 793 791 788 786 784 783 782 781 780 779 777 776 775 773 772 772 771 771 770 770 769 769
831 837 839 844 850 851 850 846 840 835 832 832 830 826 824 826 827 831 836 841 844 846 846 846 846 841 832 828 828 828 828 828 829 829 830 830 829 828 828 829 829 828 827 826 825 825 824 823 822 820 819 817 815 814 813 812 811 808 806 804 801 799 797 795 793 790 787 785 783 783 783 782 781 779 777 776 774 773 771 770 769 769 768 768 767 767
833 837 837 840 844 845 844 839 834 834 835 834 831 827 827 828 828 831 839 843 843 845 846 842 841 840 833 829 829 828 827 828 829 831 830 829 828 827 827 828 828 827 826 825 824 824 823 823 822 820 818 817 815 814 813 813 811 809 806 804 802 799 797 795 793 791 788 786 784 784 784 783 781 779 777 775 774 772 771 769 768 767 766 766 765 764
835 838 837 838 838 837 836 832 829 831 833 832 830 828 827 828 828 831 836 837 838 844 845 839 838 840 833 827 829 829 827 827 828 828 829 827 826 826 827 827 827 826 825 824 824 824 823 823 822 820 818 817 815 814 813 813 811 809 807 805 803 800 798 796 794 792 790 788 786 785 783 782 781 779 777 775 773 772 770 769 768 766 765 764 763 763
836 839 837 837 836 833 832 830 829 830 830 828 828 827 825 825 827 830 831 831 834 839 838 834 835 835 829 826 828 827 824 824 824 825 826 826 826 826 826 826 826 825 825 824 823 823 823 823 821 819 818 817 815 814 813 812 811 809 807 806 804 802 799 797 795 793 792 790 788 787 785 783 781 779 777 775 773 772 770 769 768 766 765 764 763 762
835 837 835 836 836 832 829 829 828 829 830 827 825 824 823 822 823 825 826 827 829 830 829 829 832 830 825 825 825 822 822 824 824 825 826 827 827 826 825 825 825 825 824 823 823 824 823 822 821 819 818 817 815 814 813 812 810 808 807 805 804 803 800 798 796 794 793 791 790 788 786 784 782 779 777 775 773 772 771 769 768 767 765 764 763 762
834 836 835 835 837 834 828 827 829 830 829 827 823 822 823 823 824 826 826 826 827 829 827 828 830 827 824 823 822 821 823 824 824 826 827 827 826 825 825 826 825 825 824 823 823 824 823 821 821 819 818 817 815 814 813 812 810 808 807 805 804 803 801 799 797 795 794 792 791 789 787 784 782 780 777 776 774 773 771 770 768 766 765 763 762 761
833 836 836 836 842 838 829 830 833 828 826 827 824 821 823 824 825 825 823 822 822 825 828 830 830 826 822 821 822 824 825 824 825 827 826 825 825 825 825 825 825 825 824 823 823 823 822 821 821 819 818 817 815 814 813 812 810 808 807 806 805 803 802 800 798 796 794 793 791 789 787 785 783 780 778 776 774 773 772 770 768 766 765 763 762 761
831 834 836 838 844 839 831 833 835 830 831 831 822 816 817 819 821 822 821 819 818 820 825 828 825 821 819 820 823 825 825 824 825 826 824 824 824 824 825 825 825 824 823 823 824 823 822 821 820 819 818 817 816 815 814 812 810 809 807 806 805 803 802 800 798 797 795 793 791 789 787 785 783 780 779 777 775 774 772 770 769 767 765 763 761 760
830 832 834 838 841 839 833 832 834 836 837 829 815 811 813 813 815 818 817 817 816 816 818 818 817 817 819 820 821 823 822 822 823 823 823 823 823 824 824 824 824 824 823 824 824 823 822 821 820 819 818 817 816 815 814 812 811 809 808 807 805 803 802 801 799 797 795 793 791 790 787 785 782 780 779 777 776 774 772 771 769 767 765 763 760 758
828 830 832 835 838 839 834 834 839 840 832 819 810 810 811 809 809 812 813 813 813 814 814 814 815 816 817 817 818 820 820 821 823 822 822 822 822 822 823 824 824 824 824 824 823 823 822 821 820 819 818 817 816 815 813 812 811 810 808 807 805 804 802 801 799 797 796 794 792 790 788 785 782 780 779 777 776 774 772 771 769 766 764 762 760 758
824 828 830 833 836 838 838 841 843 835 822 815 812 810 809 810 812 814 816 814 811 812 813 812 813 815 815 816 818 819 821 822 822 821 821 821 821 821 822 823 823 823 823 823 823 822 822 821 820 819 818 817 816 814 813 812 811 810 808 807 806 804 802 801 799 797 796 794 792 791 788 786 783 781 779 777 776 774 772 770 768 767 764 762 760 758
820 824 828 833 836 837 839 840 837 830 823 818 813 808 807 808 809 811 815 812 808 809 811 810 812 814 814 816 819 820 821 822 823 822 821 820 821 821 821 821 822 822 822 822 822 822 821 821 820 819 818 817 816 815 814 812 811 810 808 807 805 803 802 800 799 797 795 794 792 791 789 787 785 782 780 778 776 774 773 771 769 767 765 763 761 759
816 819 825 831 834 835 838 839 838 838 831 818 809 805 804 804 803 806 812 812 806 805 807 807 809 812 812 815 819 820 819 821 824 823 821 820 821 820 820 821 820 821 821 821 822 821 821 820 820 819 818 817 816 816 814 813 812 810 808 806 805 803 801 799 798 797 795 793 792 791 789 787 785 783 781 779 777 775 773 771 770 768 767 765 763 761
817 820 824 828 832 834 837 839 840 838 827 813 804 802 805 806 802 806 817 817 805 803 805 804 805 809 810 812 814 815 816 819 822 821 819 819 820 820 820 820 819 820 821 821 821 821 820 820 820 819 818 817 817 816 815 814 812 811 809 807 805 803 801 799 798 796 795 793 792 790 789 787 785 784 782 780 778 776 774 772 771 769 768 766 764 762
820 824 828 830 830 831 833 835 835 829 817 806 802 802 806 804 801 812 826 818 802 802 805 802 803 806 808 809 811 811 814 817 818 817 817 818 819 819 818 818 819 819 820 820 821 821 820 820 819 819 818 818 817 816 815 814 813 811 810 808 807 805 803 801 800 798 796 794 792 791 789 786 785 783 782 781 779 777 776 774 772 770 768 766 764 762
822 825 829 830 829 831 834 835 832 823 809 800 800 801 803 804 809 820 822 806 797 802 803 799 801 805 805 808 809 810 812 813 813 814 816 817 818 818 817 817 818 819 819 820 820 820 820 819 819 819 818 818 817 816 816 815 813 812 811 809 808 806 804 803 801 799 797 796 794 792 789 787 785 784 782 781 780 778 777 775 773 771 769 767 765 762
822 824 827 828 828 830 832 832 831 822 804 795 799 801 800 807 815 814 804 795 796 800 799 798 800 802 804 806 807 808 810 811 812 814 815 816 816 816 817 817 818 818 819 819 819 819 819 819 819 819 818 818 817 816 816 815 814 813 812 810 808 807 805 804 802 800 799 797 795 793 790 788 787 785 783 781 780 778 777 775 774 772 770 768 766 763
814 818 823 823 823 825 829 832 832 820 800 792 799 803 802 803 802 796 793 795 796 795 796 798 799 801 804 805 806 808 809 811 812 813 813 814 815 815 816 816 817 818 818 818 819 818 819 819 819 818 818 817 817 816 815 815 814 813 812 810 809 808 806 804 803 801 800 798 796 794 792 790 788 786 784 782 780 779 777 776 774 773 771 769 767 764
808 811 815 815 813 818 824 824 814 801 791 789 793 795 794 791 788 788 791 794 794 794 796 797 799 801 803 803 805 807 808 809 811 811 812 813 814 814 815 816 816 817 817 818 818 818 818 818 818 818 818 817 817 816 815 815 814 813 812 810 809 808 806 805 803 802 800 799 797 794 793 791 789 787 785 783 781 779 777 776 775 773 772 771 769 766
803 803 806 807 804 803 805 802 791 785 786 787 783 782 783 784 785 787 787 788 791 793 794 795 798 800 800 801 803 805 806 808 809 809 810 812 812 813 815 815 816 816 816 817 817 817 817 818 817 817 817 817 816 815 815 814 813 812 811 810 809 808 806 805 803 802 800 799 797 795 793 791 790 788 786 784 782 779 778 776 775 774 773 772 770 769
800 800 801 800 798 794 792 789 786 785 786 785 781 780 781 783 784 785 785 785 787 789 790 792 795 797 799 800 801 804 806 806 807 808 809 810 811 813 813 814 815 816 816 816 817 817 817 817 817 817 816 816 815 815 814 814 813 812 811 810 809 808 806 805 803 802 800 799 797 795 793 791 789 788 786 784 782 781 779 778 776 775 774 773 772 771
798 799 798 797 796 796 793 788 785 784 784 783 783 782 781 781 782 783 783 783 784 786 788 790 792 794 797 798 798 801 804 804 805 806 807 808 810 811 812 813 814 815 815 816 816 816 816 816 816 816 816 815 815 814 814 813 813 812 811 810 809 808 806 805 803 802 800 798 797 795 793 791 790 788 785 784 782 781 780 779 778 777 775 774 773 772
799 798 799 798 797 797 794 789 786 785 783 782 782 782 781 782 782 782 782 782 784 786 788 788 790 793 794 795 796 798 800 801 802 803 805 807 809 810 811 812 813 814 815 815 815 816 816 815 816 815 815 815 814 814 813 813 812 812 811 810 809 808 806 805 803 802 801 799 797 795 793 792 790 788 786 785 783 782 781 780 779 778 777 777 776 775
799 799 798 798 797 796 794 789 786 785 784 782 782 781 780 781 782 783 784 784 784 786 788 789 790 791 792 794 795 796 798 800 800 800 803 805 807 808 810 811 812 813 814 814 815 815 815 815 815 815 814 814 814 813 813 812 812 811 810 809 808 807 806 804 803 802 801 800 798 796 795 793 792 790 788 787 786 785 784 782 781 780 779 778 778 777
799 799 797 797 799 798 793 788 786 788 788 785 782 779 779 780 781 782 783 784 784 785 787 789 790 790 790 791 793 794 796 798 798 799 800 802 804 806 807 809 810 811 812 813 814 814 814 814 814 814 814 813 813 813 812 812 811 811 810 809 808 807 806 805 803 802 802 800 798 797 796 794 793 791 790 789 788 786 785 784 783 782 780 779 778 777
795 793 793 795 796 792 787 785 785 788 788 784 781 779 777 778 779 781 782 783 783 784 785 786 788 789 790 789 790 791 793 795 796 798 799 800 802 803 805 807 808 809 811 812 812 813 813 813 813 813 813 813 812 812 811 811 811 810 809 808 808 807 806 804 803 803 802 800 799 798 796 795 794 793 791 790 789 787 786 784 783 782 781 780 778 777
Wind_Speed
4 3 1 3 4 4 2 3 4 2 1 1 2 4 4 5 2 3 4 6 3 8 5 7 10 8 8 9 8 9 12 13 12 11 9 8 7 7 8 8 9 8 7 13 18 20 20 20 19 16 14 15 17 19 21 22 22 20 17 16 13 10 7 13 20 24 24 24 24 24 27 29 32 35 36 37 38 36 36 36 36 35 31 29 28 29
4 3 4 4 7 5 1 3 4 5 4 3 3 4 4 4 1 3 3 6 4 7 1 8 14 10 8 8 7 9 12 11 9 9 8 8 8 7 9 10 10 8 9 15 19 23 26 26 26 24 21 19 18 19 21 22 23 23 21 17 14 12 9 10 18 24 25 26 23 17 17 22 26 31 36 38 38 37 35 34 35 35 31 28 25 25
3 2 5 3 4 1 5 7 7 6 3 4 3 3 2 1 0 3 3 5 6 5 1 7 13 6 5 6 6 8 9 8 8 9 8 8 9 8 9 10 9 9 9 11 13 19 24 26 28 28 27 25 21 19 20 21 21 22 23 21 16 13 12 11 14 21 24 25 24 19 22 29 29 29 34 37 36 36 35 33 33 33 32 29 27 25
2 4 5 1 4 6 6 5 6 5 4 3 3 4 1 3 1 1 3 4 8 5 2 7 9 4 5 5 5 6 6 7 8 9 8 8 8 7 7 8 8 9 9 9 9 13 19 23 25 26 27 28 25 24 25 25 22 21 22 23 21 16 13 14 14 17 21 23 25 25 26 27 25 20 21 26 28 30 33 33 33 33 32 31 29 29
1 5 3 4 7 5 2 4 6 5 4 3 1 4 2 2 1 2 2 3 7 5 3 6 6 3 4 4 4 4 5 7 6 8 9 7 7 7 7 7 8 8 7 8 7 9 15 19 20 22 25 27 28 28 29 29 26 24 23 22 23 21 16 15 15 14 15 20 25 25 19 15 17 16 13 16 20 23 27 28 30 31 32 31 30 29
1 4 3 7 7 5 4 3 3 5 3 4 2 4 5 3 3 3 1 3 5 3 2 4 4 3 5 4 4 3 5 7 6 8 9 8 8 8 8 9 8 8 7 7 7 7 11 15 19 22 25 26 27 28 29 29 28 27 25 23 23 23 21 17 14 13 13 18 23 23 15 7 7 8 7 9 11 13 18 22 25 27 28 29 29 28
2 5 6 7 6 6 5 2 1 4 5 2 3 4 4 4 2 1 1 3 3 2 4 1 4 2 4 3 4 2 7 7 7 9 9 8 9 9 8 8 8 9 8 7 8 8 10 13 16 19 22 24 25 28 29 28 28 27 26 24 24 24 23 20 13 13 15 17 20 20 17 14 11 12 13 13 11 9 11 16 20 22 23 26 27 27
2 6 8 8 7 6 5 3 3 3 6 2 5 3 4 6 6 4 5 4 2 2 4 4 5 3 2 2 4 2 7 7 8 8 8 8 8 8 8 8 8 8 7 8 8 9 11 14 15 17 20 23 25 28 29 29 29 29 26 24 23 24 24 23 17 13 15 16 18 17 18 22 24 23 21 23 21 17 17 18 20 21 21 23 25 26
2 5 4 6 7 4 2 3 4 1 3 4 6 3 4 6 7 6 7 4 1 3 3 4 3 4 2 3 4 3 6 6 6 6 6 7 7 7 7 7 7 6 6 7 6 8 11 15 17 19 21 24 27 29 30 30 30 30 28 25 23 22 23 24 21 16 16 16 18 18 18 21 24 24 22 23 25 23 23 24 24 23 22 22 24 25
2 1 2 5 5 1 3 5 5 2 3 6 2 3 4 5 5 6 6 3 3 4 2 4 2 4 2 4 3 2 4 3 2 2 3 4 5 5 5 6 6 6 6 6 7 9 13 16 19 22 24 27 29 30 30 30 30 30 29 28 26 23 21 23 23 21 18 15 16 18 20 21 21 22 23 24 25 22 22 23 24 24 23 23 24 26
5 3 1 3 2 4 4 4 4 3 4 3 3 5 6 5 4 4 3 3 4 2 4 5 3 5 1 4 3 1 2 4 4 1 1 3 5 5 4 5 5 5 5 5 6 9 13 17 19 22 24 27 30 32 32 30 30 30 30 29 29 25 21 22 24 23 22 18 16 18 20 21 21 21 22 24 26 24 22 23 24 24 24 25 26 27
7 4 2 3 2 1 2 2 3 4 3 4 4 4 4 3 4 4 4 4 3 2 4 4 3 5 2 4 2 3 4 5 5 4 3 4 4 3 2 3 4 4 4 4 4 6 10 14 17 20 22 25 27 29 30 30 30 30 29 28 29 28 24 22 23 24 24 21 18 19 18 20 21 21 21 23 25 27 27 26 25 24 25 25 27 28
5 2 3 5 4 5 5 3 5 6 6 6 4 5 4 2 3 2 2 2 2 3 3 5 4 3 1 3 4 5 5 5 5 5 5 5 3 1 1 2 3 3 3 3 3 4 6 8 12 16 19 23 24 25 27 29 30 30 30 28 27 28 26 23 23 25 25 24 22 21 19 19 21 22 22 23 24 26 29 29 27 26 26 26 26 27
4 3 5 6 4 5 5 3 3 4 5 5 2 4 4 2 2 0 2 1 1 3 2 4 5 1 2 2 5 7 6 6 6 6 6 6 5 4 3 3 3 2 2 3 3 3 4 7 11 14 17 20 22 24 25 27 28 29 30 28 27 28 27 24 23 25 26 26 25 23 21 19 19 22 24 25 25 26 29 31 29 29 29 28 27 28
2 2 3 2 2 4 4 1 1 0 2 3 0 4 4 3 3 3 2 2 3 1 2 3 3 2 3 3 5 6 6 6 5 5 5 5 5 4 3 3 2 2 2 2 3 4 5 9 13 16 19 21 22 23 24 25 26 27 29 28 28 29 28 26 24 25 27 26 25 25 24 21 19 22 25 26 27 28 29 30 30 30 30 30 30 31
2 3 6 3 4 3 4 4 1 2 2 3 1 4 2 3 4 2 2 4 4 2 1 1 1 3 3 2 3 5 4 5 5 4 4 4 4 3 3 2 1 0 1 2 2 3 5 9 11 13 17 20 22 23 24 24 24 25 27 28 28 29 29 28 26 27 28 25 23 24 23 21 20 21 24 26 28 28 30 30 30 31 31 32 32 32
2 4 7 4 4 3 1 4 2 3 1 1 2 1 3 4 6 4 0 0 4 3 1 0 1 1 1 1 2 4 3 3 3 4 5 5 3 4 3 3 2 2 2 1 1 2 5 7 9 11 14 17 20 21 22 23 23 23 25 26 28 28 29 29 27 27 28 22 19 21 20 21 22 21 22 24 26 27 29 30 30 30 30 31 31 31
3 2 7 4 4 5 2 4 3 2 4 2 1 3 2 2 4 4 2 3 4 2 2 0 2 1 1 0 1 4 2 2 4 6 4 3 3 4 2 3 3 3 3 2 2 4 4 6 8 11 13 15 19 19 20 22 21 21 23 24 25 26 28 29 26 26 25 19 15 16 15 17 20 22 23 23 25 26 27 29 30 30 30 30 30 30
3 1 6 4 4 6 4 6 4 4 3 3 2 2 2 3 1 2 2 1 1 1 1 1 1 1 2 2 1 3 4 6 6 6 4 3 3 4 3 4 4 4 2 3 3 2 3 5 8 11 12 16 20 19 19 21 21 22 23 23 24 25 26 27 26 26 24 17 14 16 15 12 12 15 18 21 23 24 25 26 26 26 27 27 27 27
3 3 4 5 4 4 4 5 3 5 5 3 3 3 3 3 3 1 1 2 3 2 1 0 2 2 3 4 4 5 6 6 6 6 5 5 5 4 4 4 4 3 2 1 0 2 2 4 6 9 11 16 20 20 20 22 22 22 23 23 24 26 25 26 28 28 25 19 16 16 15 14 12 11 12 15 18 21 23 23 23 23 23 23 24 25
2 3 2 6 6 3 2 1 0 2 3 3 4 4 3 1 1 1 1 1 3 3 3 2 1 3 4 3 5 7 7 6 6 5 5 5 5 5 5 4 4 3 2 3 3 4 4 3 6 9 12 16 19 20 22 22 21 23 23 23 25 26 26 26 28 29 27 21 17 16 16 15 14 13 13 14 14 16 18 20 22 23 23 21 21 22
1 2 1 3 4 2 3 3 1 2 3 3 2 1 0 0 2 3 1 3 1 3 3 4 3 5 4 3 4 6 6 5 5 6 6 5 5 5 6 4 2 2 4 5 5 5 4 3 7 9 13 17 19 22 23 21 20 22 23 23 25 26 26 26 27 29 28 24 19 18 18 16 15 15 15 15 14 13 14 16 19 21 22 21 20 20
3 3 3 1 3 3 6 4 1 2 2 4 2 1 3 2 3 5 2 3 2 2 0 3 2 4 5 3 4 5 5 4 5 6 6 5 5 6 6 3 1 4 6 5 5 5 4 3 8 10 13 17 19 22 23 20 19 20 22 23 25 26 28 28 27 27 27 25 21 19 20 19 18 17 16 15 15 15 14 15 16 18 19 20 20 19
1 3 3 2 4 3 5 4 3 3 4 4 1 1 3 2 2 5 4 3 1 2 1 3 0 4 5 4 4 5 3 2 2 5 7 5 5 6 5 3 2 5 6 5 4 3 1 5 10 12 14 16 18 20 21 20 19 19 21 23 25 26 28 28 27 27 27 26 23 20 21 23 21 19 18 17 17 17 16 15 15 15 15 16 17 19
0 1 2 2 3 5 5 6 6 6 4 1 3 3 2 3 4 2 1 3 2 2 3 4 2 5 5 4 3 3 2 5 3 4 7 6 5 5 4 2 2 5 4 4 3 2 3 6 9 11 13 15 17 19 20 19 19 19 20 22 24 26 27 28 28 28 27 26 25 23 23 25 24 22 21 20 19 18 18 16 14 14 14 14 15 17
2 2 3 4 3 1 1 2 2 2 2 1 2 3 1 3 4 2 1 3 0 2 3 4 4 5 5 5 5 5 2 6 3 3 5 5 5 5 3 1 3 4 2 2 1 2 3 5 7 10 13 15 17 19 18 17 19 20 19 20 23 24 26 27 28 28 28 27 27 26 24 24 24 23 23 22 21 19 19 18 16 14 13 14 15 16
3 1 2 5 5 4 5 6 5 3 1 3 4 4 2 1 4 4 3 1 3 2 1 3 5 2 6 5 5 5 1 4 4 5 5 5 5 4 1 2 4 3 1 3 2 1 3 5 7 9 13 16 18 19 16 14 18 20 20 20 23 24 24 26 27 27 28 27 27 27 26 25 24 24 24 24 23 21 20 19 18 16 13 12 13 15
4 2 1 4 5 5 7 7 5 3 3 5 5 5 4 2 3 5 3 4 4 4 2 6 5 3 6 6 4 3 3 3 5 6 6 6 5 3 1 2 1 2 3 5 4 2 3 5 6 10 13 16 19 18 15 14 17 20 20 19 22 24 23 24 25 25 25 26 27 28 27 26 25 24 23 23 23 24 22 20 19 18 16 13 12 12
5 0 3 2 3 6 5 5 5 4 4 5 6 7 6 5 5 6 5 5 6 5 5 6 6 5 6 5 5 6 5 5 6 4 5 4 3 2 2 3 2 3 4 6 5 4 4 4 6 9 12 15 18 17 15 16 17 20 20 18 20 23 22 22 22 23 24 25 26 26 27 26 25 24 23 23 23 25 24 21 20 19 16 14 13 12
4 1 4 1 2 6 6 6 6 4 5 6 7 9 8 7 7 7 6 6 7 6 6 6 6 7 6 5 7 7 6 5 2 2 4 4 3 3 4 4 3 4 4 5 5 4 4 5 7 10 12 14 17 16 16 18 18 20 21 18 18 21 23 22 21 21 23 23 24 25 26 26 26 25 25 24 24 25 24 22 21 20 18 15 14 14
3 2 3 2 3 6 6 4 5 6 5 7 8 7 6 6 6 6 5 5 5 4 4 5 4 5 5 5 5 3 1 1 3 5 5 3 3 4 5 3 3 4 5 5 4 3 4 5 8 10 11 14 15 15 16 19 20 21 21 20 18 19 22 23 21 21 22 22 23 24 25 26 26 26 27 26 24 24 24 23 22 22 20 18 15 14
2 1 2 4 3 6 5 5 7 8 6 4 7 7 5 6 5 5 4 5 6 5 4 4 2 5 5 3 1 3 3 4 4 5 4 3 3 5 4 3 3 4 5 6 3 1 3 6 7 9 11 12 14 15 16 19 21 20 20 21 20 19 21 22 21 20 21 21 23 24 24 25 25 26 27 27 26 24 24 23 22 22 21 19 17 15
3 2 0 2 1 5 6 5 5 6 6 4 6 7 7 7 4 2 2 5 6 6 6 5 5 6 4 3 3 1 2 5 5 4 3 3 3 3 2 2 3 4 5 6 3 0 3 6 7 8 10 12 13 14 16 19 20 20 20 21 22 21 21 22 21 20 21 21 22 24 24 24 24 25 26 26 25 25 24 23 22 23 22 20 18 16
3 4 2 2 1 4 7 5 5 4 2 4 6 5 7 7 7 6 5 6 7 5 5 5 5 4 4 5 6 5 5 5 5 4 4 4 4 3 2 2 2 4 5 5 3 3 4 6 8 10 11 12 13 14 17 19 20 18 19 21 22 22 21 21 20 21 21 21 22 23 24 24 25 25 25 25 25 24 25 25 24 24 24 22 20 18
4 4 2 1 2 3 4 5 5 3 6 7 6 4 5 6 8 8 6 6 8 6 4 4 4 5 6 6 6 7 6 5 5 4 4 5 5 4 2 1 2 4 5 4 2 4 5 6 8 11 12 12 14 15 17 19 19 18 19 20 20 22 22 20 20 20 21 21 22 23 25 26 25 25 24 24 24 24 25 26 26 26 25 24 22 19
5 4 2 1 1 1 2 2 1 5 7 6 6 5 2 1 4 4 3 5 7 8 7 6 6 6 7 6 5 7 7 5 3 2 2 4 4 5 5 2 1 4 4 2 2 4 5 7 9 11 12 14 16 16 17 18 18 18 19 19 20 21 21 20 21 22 22 22 22 23 25 25 25 25 25 24 24 25 26 26 27 27 26 26 25 23
6 5 2 2 2 2 2 2 3 4 7 6 4 3 3 3 4 5 3 6 7 7 7 7 6 6 7 6 6 7 6 5 4 2 3 2 3 4 5 3 3 7 6 3 4 6 8 9 10 12 13 14 15 16 16 17 17 17 19 20 21 23 22 21 22 22 23 23 22 23 24 24 24 24 24 24 25 26 26 25 25 26 26 25 26 26
6 5 4 4 2 2 3 1 3 3 4 5 6 6 4 4 6 6 3 4 6 5 7 8 8 7 7 6 7 7 4 4 2 3 5 4 3 3 3 3 7 8 5 5 7 9 11 11 11 12 14 13 14 15 15 15 16 17 19 20 22 23 24 24 24 23 24 24 22 23 24 24 24 24 24 24 25 25 25 25 24 25 24 23 24 25
3 2 4 4 2 1 3 2 2 3 5 7 8 8 4 4 6 7 3 4 6 6 7 8 8 7 7 7 6 5 4 2 3 5 5 4 5 4 3 5 8 8 7 8 9 10 11 10 10 13 13 12 13 14 14 14 16 18 19 20 22 23 24 25 25 25 25 24 22 24 26 25 25 24 24 24 24 24 25 24 23 24 23 22 23 24
3 2 4 4 4 3 3 3 3 3 6 7 7 6 5 4 8 8 1 6 6 5 6 8 8 7 7 7 5 5 4 4 4 5 5 6 5 4 6 8 8 9 10 11 10 9 10 10 11 13 13 12 13 13 13 14 16 18 18 19 20 22 23 23 24 23 23 22 22 24 27 27 26 25 24 24 24 23 23 23 23 24 23 22 23 24
2 1 2 4 5 4 4 3 3 3 6 7 5 6 6 4 7 4 5 7 5 5 5 7 8 7 7 7 4 3 4 5 4 4 5 6 4 4 7 10 9 10 11 11 9 9 10 11 11 12 12 12 12 12 12 14 15 16 17 17 18 20 22 22 22 21 20 21 22 25 27 26 25 25 24 23 23 23 23 23 23 23 23 23 25 26
2 1 1 3 3 3 4 3 3 4 6 4 4 5 5 4 2 5 6 4 6 7 6 6 7 7 7 6 5 5 5 4 5 6 6 6 6 5 7 9 10 11 11 10 9 9 10 10 11 11 11 11 12 12 12 14 14 14 16 17 18 19 20 21 21 18 18 20 23 26 25 24 24 24 23 24 24 23 23 23 23 23 22 24 27 27
5 3 2 3 3 2 2 2 1 5 6 5 8 4 2 3 5 6 3 3 6 7 6 5 6 6 7 6 5 6 6 5 6 6 6 6 5 6 8 9 10 10 10 9 9 9 9 10 10 10 10 11 12 10 10 13 13 14 16 18 19 18 18 19 20 17 16 20 24 25 24 23 24 23 24 25 24 23 22 23 24 24 23 24 26 26
3 4 3 3 3 3 3 4 5 5 6 8 9 6 7 7 5 6 7 5 6 6 5 5 5 6 8 8 6 6 7 6 6 6 6 5 5 6 8 8 9 10 9 9 8 8 8 9 9 9 9 10 11 9 9 12 12 14 16 18 18 18 17 18 19 17 17 21 25 24 22 22 23 24 24 25 24 23 23 24 24 23 23 24 26 25
4 4 4 4 4 3 5 6 6 4 5 9 9 7 8 8 5 7 9 7 6 5 5 6 6 7 8 9 8 6 6 6 7 6 6 6 5 7 8 8 9 10 8 8 8 7 8 8 8 8 8 9 11 10 10 12 12 14 16 17 17 17 17 19 19 17 18 22 24 23 21 22 23 23 23 24 24 23 23 23 24 23 22 23 25 24
3 3 3 3 3 4 3 4 4 2 4 8 8 5 5 7 7 7 8 7 6 6 6 7 8 8 8 8 7 6 6 7 7 6 6 6 5 7 9 9 8 9 8 7 7 6 7 8 7 7 7 9 10 11 11 12 13 14 15 15 16 16 17 18 18 17 19 23 23 22 22 22 23 24 23 23 22 22 22 21 22 21 20 21 22 23
2 2 1 0 2 3 3 4 4 3 6 9 9 5 3 5 7 8 8 7 6 6 6 8 9 9 8 8 8 8 8 8 8 7 6 6 6 7 9 9 8 8 6 6 6 6 6 7 7 7 7 9 10 11 11 11 12 14 14 15 16 16 16 17 17 17 20 23 24 23 23 22 23 24 24 23 22 22 22 20 20 20 19 19 21 21
2 3 3 2 2 2 4 7 7 6 6 5 5 6 5 5 6 6 5 5 5 6 7 9 10 9 8 8 10 10 9 8 8 8 6 6 6 8 10 10 9 8 6 5 5 5 5 6 6 6 7 8 10 10 10 10 12 13 14 15 16 15 15 17 16 15 17 20 22 23 23 22 23 24 23 22 21 22 21 20 20 20 20 20 20 21
2 3 2 3 3 3 5 7 5 5 6 5 3 4 5 4 6 6 4 4 6 7 7 9 10 10 10 9 9 9 9 8 8 8 8 6 6 9 11 10 8 7 5 5 5 4 5 5 5 5 5 7 9 8 8 9 12 13 12 13 16 16 16 18 16 14 15 17 18 20 21 21 24 25 23 20 20 21 20 19 19 19 20 20 20 19
2 4 3 2 4 5 5 4 1 1 3 4 3 4 4 2 6 7 5 5 6 8 9 9 8 9 11 13 12 10 8 7 8 9 8 7 9 12 13 11 9 7 5 5 5 5 4 4 3 3 3 5 6 6 6 8 11 12 11 12 15 16 17 18 15 13 14 16 16 17 17 18 21 23 23 21 19 19 19 19 18 18 19 21 20 17
5 6 5 4 5 6 6 7 4 3 4 6 6 5 3 3 5 7 7 7 7 8 9 10 8 7 8 11 14 14 9 8 11 11 8 8 13 16 15 12 10 8 6 6 6 5 4 3 2 1 1 3 5 4 4 7 10 12 10 10 13 15 16 17 15 12 13 15 15 15 14 15 17 20 21 20 20 19 20 20 19 18 19 21 20 18
Wind_Direction
94 76 283 191 224 244 211 177 150 116 57 348 14 48 61 80 14 330 13 341 45 84 58 87 77 50 55 58 59 69 71 70 69 68 65 64 60 50 55 57 58 53 30 36 41 39 34 32 30 28 22 18 19 23 21 17 10 5 5 358 349 334 284 239 224 215 215 215 211 213 214 213 214 213 216 221 223 222 221 221 220 218 218 221 223 222
83 137 245 213 215 233 13 28 26 12 2 16 57 56 52 86 352 296 27 346 35 91 78 87 76 49 50 56 49 65 72 70 73 78 73 68 64 54 54 50 55 57 37 38 39 33 28 22 20 20 16 9 8 14 16 16 12 7 5 358 347 336 307 261 237 225 222 219 210 214 225 220 218 218 217 220 222 222 223 223 222 221 220 222 226 226
53 198 250 219 199 322 27 28 18 358 23 54 78 83 25 43 280 301 347 5 51 91 209 89 85 58 30 45 48 59 74 81 81 84 83 75 66 54 53 52 53 59 51 44 39 31 26 20 18 14 11 7 1 0 5 10 11 8 6 1 352 335 312 291 257 234 228 223 213 218 229 222 219 223 221 220 220 220 222 224 224 224 223 224 227 232
63 251 254 132 63 34 11 17 38 27 50 67 78 96 296 287 82 324 318 25 58 84 158 99 93 67 12 17 39 48 72 83 79 82 83 79 77 71 65 62 57 58 57 52 42 30 24 20 17 12 7 6 3 358 358 1 4 5 4 0 357 346 318 299 278 248 237 236 231 229 229 224 223 234 234 225 221 219 219 223 225 227 226 224 228 232
156 249 258 42 26 33 31 19 59 66 34 359 83 117 174 270 154 216 257 70 67 56 68 80 67 9 355 0 7 13 61 71 68 75 71 67 77 78 68 62 62 65 64 60 52 33 25 19 15 13 9 6 4 360 357 357 358 358 359 357 355 353 338 308 286 270 252 247 247 239 231 233 235 242 250 239 230 222 218 221 226 228 228 227 230 230
350 288 18 45 15 40 91 52 72 105 62 342 286 169 172 191 213 243 289 69 68 16 322 76 71 315 320 351 325 328 59 59 46 59 61 54 55 55 52 49 51 55 56 60 59 46 35 23 16 14 11 7 3 360 357 356 357 355 355 356 351 350 350 332 294 278 267 249 248 245 235 247 260 249 251 258 259 235 218 220 223 226 228 228 229 228
17 6 36 52 34 40 65 38 24 101 92 356 267 191 160 127 93 356 89 90 107 214 285 42 118 244 310 340 301 333 64 53 37 46 46 46 47 46 48 44 41 41 38 38 37 35 32 24 18 13 9 6 2 0 357 353 353 353 353 355 351 347 351 350 322 284 273 251 241 239 229 226 235 231 222 233 263 267 239 231 225 226 230 229 229 229
359 28 32 42 47 43 36 3 322 86 98 273 247 168 107 98 94 79 84 89 160 176 340 0 109 123 294 270 289 4 70 51 36 40 33 36 41 42 45 44 44 40 33 32 23 16 16 14 11 5 3 3 1 0 358 352 349 348 348 349 348 346 347 351 342 304 281 258 239 239 232 227 232 232 223 220 229 238 239 237 232 231 236 234 232 232
351 42 44 56 56 41 1 286 269 86 106 248 238 166 105 112 122 106 90 87 107 87 359 321 82 93 259 270 317 12 76 58 39 42 36 38 42 44 46 43 43 40 34 36 25 12 9 6 5 3 1 0 360 358 354 350 347 345 345 343 342 342 341 342 342 327 302 271 249 250 244 237 239 235 226 219 218 218 221 228 230 232 237 238 234 233
326 232 154 99 87 178 263 274 287 342 273 251 219 91 68 77 94 94 105 120 61 66 224 246 103 103 255 288 319 13 75 88 88 70 54 54 57 56 55 52 45 40 36 31 24 17 10 5 6 7 5 0 357 354 349 345 344 343 342 341 339 337 334 333 336 333 319 291 264 260 254 249 246 234 225 223 221 218 218 224 227 229 235 239 237 235
304 274 133 93 157 211 233 274 301 317 282 281 50 59 56 44 40 59 78 98 75 354 242 216 148 115 167 279 263 165 127 157 162 125 43 49 55 51 53 57 53 51 47 30 19 12 10 13 13 9 4 358 352 348 344 340 338 339 339 339 337 334 330 328 329 330 325 307 280 269 259 250 250 242 231 228 229 229 227 227 228 228 231 235 235 235
335 357 8 309 291 336 18 334 328 344 8 37 55 78 80 24 8 29 8 42 96 267 256 198 142 98 119 254 229 165 164 153 140 125 94 67 56 43 46 55 53 63 59 33 14 1 11 17 15 8 360 352 348 345 342 338 335 336 335 336 336 334 329 324 323 323 322 314 295 281 265 249 247 247 239 235 236 235 231 231 231 230 230 230 231 230
334 327 309 315 346 28 37 12 345 355 17 29 45 75 84 19 8 29 333 27 129 263 248 161 123 69 227 229 179 166 167 150 143 146 128 111 115 148 152 92 58 70 67 35 16 359 14 21 14 6 356 349 344 340 338 337 336 336 333 332 334 334 332 325 319 318 318 314 304 292 276 254 244 244 243 239 239 238 234 232 231 230 229 229 229 228
336 311 336 355 354 15 48 67 11 348 353 358 31 96 104 96 62 288 281 24 152 286 307 119 97 41 279 254 177 168 168 164 153 148 144 144 164 186 174 134 81 71 63 36 25 15 23 25 15 5 357 351 344 338 337 335 336 337 333 330 330 333 334 330 322 319 318 313 306 299 288 270 247 240 242 239 237 238 237 234 233 233 231 230 231 231
53 303 319 359 310 336 5 101 149 186 318 317 230 115 114 138 134 177 215 164 174 249 8 47 61 160 205 248 197 163 158 161 145 136 147 169 187 171 129 111 88 56 26 20 16 21 33 29 16 5 359 354 344 338 336 335 336 337 334 331 329 330 334 335 332 329 325 314 305 301 292 282 262 246 241 238 237 238 238 237 235 236 236 236 236 236
82 255 262 257 254 295 331 299 290 72 350 301 68 81 91 167 142 144 186 170 153 130 58 358 277 200 193 225 168 136 134 129 122 140 161 193 199 124 105 137 145 233 310 354 357 27 41 30 15 3 356 352 345 339 334 332 334 335 334 334 333 332 333 336 337 336 331 319 307 302 292 283 274 258 247 241 239 239 241 240 239 239 241 242 242 241
56 278 276 302 294 261 302 308 317 105 150 305 48 76 234 174 125 109 262 353 91 102 271 244 178 288 346 41 113 122 118 90 125 183 193 204 178 108 134 193 219 241 248 304 352 84 57 24 7 358 354 354 352 342 333 331 330 331 334 336 338 337 336 339 340 339 337 328 313 307 295 282 277 267 256 250 247 246 245 242 241 243 244 245 247 247
120 288 286 336 339 287 308 0 352 102 114 81 61 221 241 48 80 101 98 0 48 110 262 120 170 222 77 85 85 117 148 237 222 215 219 221 156 124 179 227 249 253 260 318 36 72 43 10 358 354 353 360 360 347 337 335 333 334 339 340 340 337 336 339 342 342 343 341 334 332 319 295 283 276 268 263 259 255 249 246 244 243 244 246 249 250
111 26 289 327 351 299 344 37 2 338 35 90 193 204 99 69 356 33 101 123 77 132 287 349 287 240 165 207 167 151 202 222 224 234 240 223 171 157 216 258 268 279 312 358 39 53 6 355 350 346 349 2 3 352 342 341 340 342 345 346 344 341 341 347 348 344 345 350 356 359 360 348 321 298 287 280 273 264 255 251 249 246 247 248 248 250
97 99 277 305 330 320 2 41 12 319 339 24 15 9 51 133 166 140 137 154 137 154 179 24 317 283 226 216 175 189 222 212 213 241 234 211 196 192 220 249 268 287 300 331 150 234 284 326 336 340 351 3 2 352 346 346 344 346 349 350 349 347 349 357 360 353 344 343 350 357 4 10 5 349 328 309 291 277 266 258 253 251 252 250 247 246
51 92 233 298 332 17 19 5 28 304 317 16 23 3 346 349 96 99 355 83 125 142 153 151 225 265 249 212 170 190 220 210 200 213 207 201 208 216 229 244 261 277 250 217 212 227 243 293 332 344 357 5 3 354 351 348 344 348 353 353 352 351 351 356 2 359 350 344 347 352 357 1 3 2 357 346 322 296 282 271 261 257 254 250 247 244
82 104 147 303 339 15 241 248 178 220 215 148 107 356 255 59 67 78 336 316 70 122 151 153 193 261 258 210 180 190 208 213 195 181 180 195 212 228 242 253 254 215 207 213 221 225 232 298 345 351 0 7 4 357 353 349 346 351 356 356 355 353 353 356 358 358 353 352 355 358 0 2 4 4 1 359 350 327 305 292 282 273 263 253 248 245
143 103 88 276 269 231 245 261 224 226 197 134 127 120 121 111 97 112 188 271 350 14 36 118 146 259 261 222 198 203 206 209 199 171 160 185 218 230 244 267 245 194 204 218 223 220 224 336 356 353 358 7 5 357 353 349 347 352 357 358 358 357 357 357 356 352 350 353 0 5 7 6 5 3 359 358 356 346 328 312 304 294 280 268 254 243
101 83 69 304 296 296 292 314 345 354 51 70 349 7 89 92 128 141 170 177 83 324 2 83 46 263 274 266 226 222 209 175 180 153 144 178 221 232 252 276 218 201 219 239 239 237 277 2 359 351 352 1 2 354 351 350 349 352 357 360 360 359 358 357 354 350 348 354 1 4 5 5 3 1 360 358 356 353 344 330 318 308 299 289 271 255
46 108 84 50 359 348 340 343 345 346 18 71 279 306 68 90 89 87 79 87 69 257 146 122 233 248 269 294 288 287 19 63 69 138 153 177 210 230 255 272 187 200 232 255 256 286 351 358 348 343 346 353 358 353 348 352 354 352 355 359 0 0 360 357 355 353 353 358 5 8 7 5 4 4 4 1 357 355 353 346 332 315 305 297 282 269
118 150 113 107 118 137 250 274 278 293 322 306 283 311 358 97 95 90 56 73 111 237 125 136 216 258 290 315 327 325 45 89 103 178 181 191 207 227 248 157 179 209 250 311 321 319 347 345 331 337 346 350 356 355 350 353 359 357 354 357 2 2 0 359 358 359 2 4 8 12 12 9 7 7 7 4 0 358 355 354 348 334 314 296 283 276
90 100 120 139 162 187 199 224 225 182 203 268 267 290 297 127 109 105 98 118 189 161 57 206 194 238 292 294 312 312 178 146 185 205 206 213 212 223 227 159 194 220 301 336 352 351 344 337 318 331 348 354 357 358 356 357 1 2 359 358 2 2 2 3 2 3 7 8 7 8 9 9 7 6 6 4 3 2 0 359 356 351 339 312 287 273
77 8 274 170 197 221 211 226 242 196 201 233 239 252 248 210 134 121 157 211 166 114 290 248 184 175 264 260 248 250 222 218 233 211 201 206 202 201 149 144 202 344 339 331 349 359 336 325 317 332 349 356 358 358 0 2 2 6 6 2 4 4 2 4 6 6 8 7 4 2 2 4 4 3 4 4 4 3 3 4 2 358 353 338 313 284
101 272 250 201 258 265 241 249 267 243 224 231 230 229 224 207 175 173 206 203 152 149 233 230 188 198 245 252 225 213 205 221 237 216 187 181 176 159 91 72 36 4 338 330 342 347 331 323 328 341 350 356 359 359 1 2 1 5 6 4 8 9 5 5 7 8 7 6 3 359 358 0 2 2 3 3 4 3 2 5 4 359 355 345 331 312
103 240 250 198 314 297 282 283 290 283 261 249 237 222 210 203 193 192 217 202 170 188 212 194 198 228 243 229 216 214 208 211 226 96 122 135 140 119 77 58 24 353 331 329 342 346 330 326 340 351 354 357 2 6 5 1 1 4 4 4 7 10 11 10 9 9 7 5 2 358 358 0 2 2 4 4 3 2 2 5 4 360 357 348 332 318
90 261 256 97 21 304 292 312 327 319 286 251 247 238 210 206 212 211 218 193 175 210 205 167 193 259 263 222 210 237 259 108 80 104 129 136 128 99 67 42 4 342 323 327 354 354 317 328 351 356 353 357 9 16 9 2 3 8 9 6 3 6 11 11 8 8 6 3 1 359 359 0 2 4 6 5 3 1 2 4 3 359 357 354 342 325
99 282 320 54 26 286 288 349 339 328 330 295 280 273 228 201 207 216 216 194 180 179 171 156 195 256 259 225 190 354 28 93 121 144 138 109 110 100 75 38 356 330 312 325 0 34 320 338 355 352 350 6 22 24 13 7 7 11 12 8 2 2 8 8 7 5 3 2 2 1 0 359 0 5 6 6 6 3 3 4 4 2 360 356 350 338
137 122 24 64 16 276 288 339 340 347 11 339 277 252 221 208 196 193 233 223 194 160 157 188 217 228 226 157 124 98 112 129 151 172 147 113 102 92 75 31 349 319 316 335 358 342 341 355 1 355 1 21 32 25 17 15 13 11 10 9 8 8 6 6 8 7 4 4 3 2 1 359 1 5 5 5 8 6 4 4 2 360 357 353 348 343
152 127 163 179 148 275 290 334 6 10 351 261 247 211 197 202 194 192 211 214 202 174 163 193 210 203 180 149 148 164 163 155 166 184 171 138 110 85 31 349 335 330 346 6 358 315 351 15 11 6 19 34 32 22 18 18 15 12 11 11 12 12 7 5 8 9 7 6 5 4 3 2 4 4 2 5 9 7 4 4 1 358 355 352 347 341
167 148 179 196 153 256 305 14 23 290 241 244 267 261 220 197 186 194 216 216 205 199 179 179 194 185 169 164 161 155 161 171 168 161 154 144 136 125 97 358 350 12 27 38 1 338 10 23 12 17 33 36 25 18 18 17 14 12 13 12 11 10 9 8 9 9 8 8 7 7 6 5 4 2 2 6 7 6 5 5 3 1 359 358 357 352
166 155 166 182 166 248 344 58 175 252 262 277 297 295 270 118 129 161 255 262 223 201 190 193 203 187 165 162 156 147 154 159 144 141 163 166 160 136 128 146 41 65 89 96 24 24 34 26 23 35 39 30 22 18 16 15 12 10 11 13 11 9 10 10 9 8 9 9 9 9 9 7 4 2 4 5 5 6 8 7 6 5 5 8 13 17
156 143 152 213 212 184 185 209 240 298 313 307 290 254 209 171 151 153 210 263 242 204 187 186 189 180 162 149 145 149 145 109 78 351 284 244 196 156 153 165 118 111 121 96 58 63 51 38 44 48 36 26 25 22 16 14 10 8 10 12 12 12 11 9 8 7 7 9 11 12 11 9 5 4 5 5 5 6 6 7 8 8 10 15 19 24
164 159 170 197 217 133 144 263 316 326 297 267 249 255 242 181 155 139 142 277 268 228 189 170 167 167 157 149 154 151 119 83 90 258 274 278 248 177 150 116 104 110 105 71 69 66 54 52 58 47 33 31 32 23 17 14 9 8 11 13 14 13 11 9 9 6 5 7 11 13 11 9 8 7 6 6 6 5 6 9 10 10 14 19 18 17
169 115 130 159 201 147 146 208 236 229 251 249 247 264 253 164 124 94 58 297 268 228 186 162 160 164 158 163 161 129 95 94 235 250 252 247 235 203 145 100 95 96 81 72 74 67 58 61 59 44 37 40 35 24 18 16 16 17 16 15 14 11 8 7 6 5 4 7 11 11 9 9 10 10 9 7 7 7 9 11 12 13 17 18 14 13
171 91 114 174 216 200 169 205 231 235 250 244 236 238 213 151 91 75 18 272 252 219 190 157 154 167 166 162 144 113 128 186 219 238 224 206 208 188 135 108 95 91 87 81 76 70 65 63 53 44 44 45 36 27 22 20 23 25 20 16 14 10 7 6 3 3 7 11 12 10 7 8 10 10 9 9 8 10 13 13 13 17 19 15 11 11
187 162 161 196 219 206 186 224 264 260 248 242 225 195 172 112 70 94 220 238 211 204 205 160 152 167 164 155 146 148 189 206 189 186 190 172 157 135 122 114 101 94 91 83 74 70 68 64 55 49 51 45 33 29 28 23 24 26 19 15 13 8 8 9 7 8 14 16 13 9 8 10 11 9 9 10 11 13 15 15 16 19 18 14 12 13
187 194 179 183 206 204 185 208 281 283 253 214 159 164 152 113 124 215 221 205 171 186 202 173 161 167 162 160 163 166 191 201 156 143 153 151 137 128 124 115 104 100 96 83 72 68 66 63 58 56 56 44 31 31 30 23 22 22 17 14 11 5 5 11 13 15 20 19 14 11 11 14 13 10 10 12 14 15 15 16 19 21 19 15 14 15
179 179 208 200 188 164 158 186 268 280 250 164 123 121 162 164 202 211 189 168 178 182 183 176 173 166 157 162 171 161 157 156 143 139 145 144 133 129 128 117 109 111 102 84 75 72 68 62 56 59 60 44 34 36 29 22 24 23 17 14 11 6 8 14 17 22 25 20 15 14 16 17 15 14 14 14 14 14 14 15 19 21 20 17 15 15
195 176 198 221 189 144 157 204 215 227 214 168 147 172 208 202 191 164 154 180 206 192 174 171 179 173 158 155 164 159 144 143 151 148 138 135 129 127 129 123 119 121 108 89 82 76 69 64 56 62 63 45 39 38 27 27 33 28 20 17 14 13 15 15 17 25 27 21 17 17 21 20 17 16 16 14 13 14 15 16 18 19 20 19 16 14
226 198 186 206 219 187 182 214 231 225 194 184 184 195 198 196 186 163 164 180 200 197 179 165 172 179 166 154 151 150 147 156 165 157 143 148 148 137 134 131 126 125 112 96 92 84 75 67 58 62 65 49 41 36 29 36 42 33 24 20 17 17 16 14 19 28 27 21 20 22 23 22 19 18 17 15 15 16 16 15 15 16 17 17 16 15
224 220 181 185 253 275 246 238 253 250 200 208 217 213 181 182 188 179 175 182 190 189 177 164 167 173 167 154 144 148 164 167 162 161 157 155 150 142 140 136 131 128 117 103 103 98 84 70 60 64 67 53 43 38 37 46 47 36 28 23 19 19 19 20 25 29 24 20 23 26 26 23 19 18 17 17 20 21 20 17 15 14 14 14 14 12
280 322 5 249 280 290 289 291 283 250 231 223 224 243 246 211 200 187 183 189 188 175 163 161 161 162 163 157 150 158 176 171 159 162 161 150 150 152 146 139 136 134 122 113 117 110 89 73 61 63 67 55 44 41 45 50 46 37 32 27 21 21 22 24 27 26 21 20 21 24 27 26 21 17 17 19 21 21 20 18 15 13 13 12 9 6
308 347 345 286 260 214 240 277 285 273 266 243 215 235 247 226 217 217 204 185 162 151 156 160 158 159 166 167 161 163 173 173 162 161 161 155 158 161 153 146 144 140 131 132 136 119 94 80 66 63 67 57 44 41 47 49 41 35 32 26 21 19 18 18 22 25 25 25 24 22 24 25 23 21 22 23 22 19 16 14 11 10 11 11 7 3
256 304 283 249 280 285 269 286 318 333 329 343 337 281 264 216 203 214 218 180 146 140 155 167 170 170 169 170 167 161 167 177 169 158 158 160 160 163 159 153 151 151 146 149 152 131 103 89 72 67 70 58 46 44 48 46 38 32 30 25 20 18 16 17 22 28 29 30 31 28 24 23 24 25 27 28 25 21 20 16 12 9 7 7 8 8
231 263 232 208 274 276 253 256 310 22 297 304 296 275 277 227 181 180 188 188 171 163 167 177 188 185 173 171 170 161 162 183 178 161 158 163 165 167 165 160 159 167 167 162 158 143 121 99 74 73 78 62 52 51 50 42 33 27 28 26 21 17 17 19 25 33 33 31 32 30 28 26 26 28 29 28 23 19 19 19 18 16 11 7 8 12
207 221 194 195 237 240 229 233 236 219 237 252 243 223 205 150 150 169 190 199 194 185 176 175 184 192 186 182 178 169 165 178 176 164 158 167 171 171 171 171 173 178 185 180 168 151 134 109 65 45 92 71 63 68 63 44 28 21 22 26 21 16 17 21 27 34 33 31 31 29 27 28 30 30 31 30 26 18 14 13 15 17 17 13 10 11